Regional Weather Roundup
Issued by NWS Goodland, KS

Home | Current Version | Previous Version | Text Only | Print | Product List | Glossary Off
Versions: 1 2 3 4 5 6 7 8 9 10 11 12 13 14 15 16 17 18 19 20 21 22 23 24 25 26 27 28 29 30 31 32 33 34 35 36 37 38 39 40 41 42 43 44 45 46 47 48 49 50

000
ASUS43 KGLD 040508
RWRGLD

GOODLAND FORECAST AREA HOURLY WEATHER ROUNDUP
NATIONAL WEATHER SERVICE GOODLAND KS
1100 PM MDT THU SEP 03 2015

...OFFICIAL OBSERVATIONS...

CITY           SKY/WX    TMP DP  RH WIND       PRES   REMARKS
GOODLAND KS    MOCLDY    74  54  49 VRB3      29.86R
HILL CITY KS   CLOUDY    86  59  39 S16G28    29.80S
IMPERIAL NEB   CLOUDY    68  62  81 N10       29.83F
MCCOOK NEB     CLOUDY    85  58  39 S16G22    29.78R
AKRON CO       MOCLDY    64  51  62 N6        29.95F
BURLINGTON CO  PTCLDY    68  53  58 NW9       29.92R
LIMON CO       MOCLDY    62  53  72 NW8       30.00S
$$

...UNOFFICIAL OBSERVATIONS...

CITY           SKY/WX    TMP DP  RH WIND       PRES   REMARKS
COLBY KS       CLEAR     82  61  47 S15       29.83S
GOVE KS          N/A     82  32  16 MISG        N/A
LENORA KS        N/A     84  32  15 MISG        N/A
NORTON KS      CLEAR     81  52  36 SE9G20    29.79S
SHARON SPRINGS   N/A     79  54  41 SE14        N/A
TRENTON NEB      N/A     72  32  23 NW12        N/A
KIT CARSON CO    N/A     69  52  54 MISG        N/A
$$


USA.gov is the U.S. government's official web portal to all federal, state and local government web resources and services.